Zurück zum Katalog

FENGYUN 1C DEB

AktivSSO
NORAD 30758·DEBRIS·🇨🇳 China

Gestartet May 10, 1999 von Taiyuan Satellite Launch Center

Loading…

Nächste Überflüge (nächste 24 Stunden)

TLE

AktuellSource: Space-Track

Epoche: Sep 14, 2026, 06:52 UTC

1 30758U 99025ATU 26257.28621213  .00001197  00000-0  60070-3 0  9999
2 30758  99.0406  25.4204 0038407 299.9106  88.8042 14.18168675  3930

Verfolge FENGYUN 1C DEB in Echtzeit mit AllMySat

Download on the App Store